RH
38 32 24 19 15 13 13 14 15 15 16 17 17 17 17 17 16 15 14 13 12 16 17 22 23 23 23 24 24 23 25 29 28
44 37 35 30 24 21 20 19 19 18 18 18 18 19 20 22 24 24 23 22 20 18 20 23 24 24 28 25 25 24 25 24 23
41 38 38 33 32 32 32 31 31 31 32 31 31 32 32 31 31 31 31 31 30 30 29 29 31 31 31 27 26 24 27 30 32
31 30 29 29 31 33 36 37 39 39 39 39 39 38 38 38 38 38 37 36 36 35 34 32 31 32 33 33 33 32 32 30 31
31 28 28 28 30 29 30 31 33 34 36 37 40 41 42 42 42 42 43 43 43 43 43 43 42 42 42 39 36 33 32 33 30
31 31 33 36 36 35 36 38 40 40 40 40 41 41 41 41 40 40 41 40 40 40 42 47 47 45 42 42 41 41 41 40 39
34 35 36 39 40 41 44 44 43 43 42 40 40 39 38 38 38 38 38 36 35 37 38 44 45 46 49 51 50 48 44 44 50
39 39 40 42 44 46 47 45 44 42 41 40 39 38 36 36 36 36 37 39 39 38 37 36 36 38 46 48 50 54 61 63 63
43 43 44 44 46 47 47 46 45 42 39 39 36 34 35 34 33 34 33 32 30 30 31 29 29 31 34 37 48 49 52 53 54
46 45 47 44 45 47 46 46 42 40 38 35 32 30 28 27 26 25 25 25 25 25 25 25 27 27 29 32 35 38 41 41 44
49 48 46 49 50 49 46 41 37 33 32 30 27 26 24 21 20 20 19 18 18 19 20 21 22 24 27 30 32 33 33 35 37
50 49 52 54 51 46 39 36 34 33 29 27 25 22 21 20 19 19 19 20 20 20 20 22 22 24 27 26 25 26 27 26 30
53 53 55 53 41 35 37 36 33 29 25 21 18 17 19 19 19 20 18 17 16 16 14 14 15 16 18 19 22 22 22 21 21
54 53 44 35 37 37 35 31 26 21 18 17 17 18 18 18 18 16 16 14 13 12 12 14 15 14 14 13 13 12 12 12 11
47 37 37 38 37 35 32 26 19 17 16 17 17 19 18 18 18 16 16 14 14 14 15 14 14 14 13 13 13 13 13 13 12
31 35 38 37 36 33 26 19 17 17 17 19 20 20 19 18 17 17 16 16 16 16 15 15 16 16 16 16 15 15 14 15 16
36 38 38 38 35 26 20 18 18 20 22 22 21 20 19 19 19 19 18 18 18 18 18 18 18 17 17 16 14 13 12 13 17
40 42 42 38 29 24 21 19 23 24 24 22 22 21 21 20 20 20 20 21 21 21 20 18 15 12 10 8 8 7 7 10 14
45 43 39 34 30 26 23 25 26 25 23 23 23 22 22 23 22 22 23 22 19 16 13 10 9 8 8 9 10 9 11 14 15
45 41 38 34 32 30 30 28 26 25 24 24 23 23 24 25 26 25 21 17 13 11 10 8 8 9 10 11 11 13 16 16 17